Regional Weather Roundup
Issued by NWS

Home | Current Version | Previous Version | Text Only | Print | Product List | Glossary On
Versions: 1 2 3 4 5 6 7 8 9 10 11 12 13 14 15 16 17 18 19 20 21 22 23 24 25 26 27 28 29 30 31 32 33 34 35 36 37 38 39 40 41 42 43 44 45 46 47 48 49 50
000
ASUS45 KTFX 161519
RWRMT
MONTANA HOURLY WEATHER ROUNDUP
NATIONAL WEATHER SERVICE GREAT FALLS MT
919 AM MDT WED APR 16 2014

NOTE: "FAIR" INDICATES FEW OR NO CLOUDS BELOW 12000 FEET WITH NO
SIGNIFICANT WEATHER AND/OR OBSTRUCTIONS TO VISIBILITY.

* THESE STATIONS ARE NOT UNDER NWS QUALITY CONTROL. THEY DO NOT
   REPORT WEATHER SUCH AS PRECIPITATION OR FOG.

MTZ001>007-043-161600-
WEST OF THE DIVIDE
CITY           SKY/WX    TMP DP  RH WIND       PRES   REMARKS
KALISPELL      FOG       32  30  92 CALM      29.98R
MISSOULA       CLOUDY    32  30  92 CALM      30.03S
BUTTE          PTSUNNY   34  19  54 NE3       29.98S
MULLAN PASS    CLOUDY    27  23  85 VRB3      29.95R
* ESSEX        N/A       33  32  96 N/A        N/A
* LINCOLN      N/A       31  26  82 SE2        N/A
* LOOKOUT PASS N/A       32  28  85 N/A        N/A
* PLAINS APT   CLOUDY    32  27  82 N/A       30.02R VSB 3/4
* POLSON       N/A       36  29  76 S1         N/A
* SEELEY LAKE  N/A       29  27  92 N/A        N/A
* THOMP F APT  PTSUNNY   31  15  51 SE4G17     N/A
$$

MTZ008-052>055-161600-
SOUTHWEST MONTANA
CITY           SKY/WX    TMP DP  RH WIND       PRES   REMARKS
BOZEMAN        PTSUNNY   39  25  57 CALM      29.99R
DILLON         PTSUNNY   37  18  46 W15       29.99S WCI  28
W YELLOWSTONE  N/A       32  20  61 NW1        N/A
* THREE FORKS  PTCLDY    37  25  62 SW8        N/A   WCI  31
* BOULDER HILL N/A       32  18  56 SW3G8      N/A
* MONIDA PASS  N/A       25  16  69 W9         N/A   WCI  16
* RAYNOLDS PAS N/A       26   5  40 SE4        N/A
* WHITEHALL    N/A       37  21  52 SW3        N/A
* WISE RIVER   N/A       31  21  66 W6G11      N/A   WCI  25
$$

MTZ009>010-012-014-046-048-049-054-161600-
EAST SLOPES AND CENTRAL MONTANA
CITY           SKY/WX    TMP DP  RH WIND       PRES   REMARKS
CUT BANK       LGT SNOW  30  28  92 N3        29.96S VSB 3
GREAT FALLS    CLOUDY    34  30  85 N3        29.96R
HELENA         PTCLDY    43  25  49 SW6       29.97S
MALMSTROM AFB  CLOUDY    34  30  85 CALM      29.95R
* CONRAD       PTCLDY    32  32 100 N/A        N/A
* DEARBORN     N/A       32  30  92 S1         N/A
* EAST GLACIER N/A       28  24  85 NE4G9      N/A
* MONARCH      N/A       27  24  88 S4         N/A
* PENDROY      N/A       32  32 100 E4         N/A
* ROGERS PASS  N/A       31  24  75 SE3G14     N/A
* SAINT MARY   N/A       30  29  96 NE2G8      N/A
* SWEET GRASS  N/A       27  26  96 N10        N/A   WCI  18
* WHITE SULPH  N/A       37  24  59 N2         N/A
$$

MTZ011-013-016-021-035-040-045-047-050-051-161600-
NORTH CENTRAL MONTANA
CITY           SKY/WX    TMP DP  RH WIND       PRES   REMARKS
HAVRE          CLOUDY    34  27  76 E3        30.02R
LEWISTOWN      CLOUDY    30  28  92 N3        29.97R
* CHINOOK      PTSUNNY   36  25  64 CALM      30.04R
* FORT BENTON  PTSUNNY   34  30  85 CALM      30.02R
* MALTA APT    CLOUDY    28  19  69 CALM      30.02R
* CHESTER      N/A       32  30  92 N/A        N/A
* DENTON       N/A       32  31  96 NE1        N/A
* GEYSER       N/A       31  31 100 SE4        N/A
* JUDITH GAP   N/A       29  29 100 VRB11      N/A   WCI  19
* LOMA         N/A       33  32  96 W1         N/A
$$

MTZ017>020-022>027-061-062-161600-
NORTHEAST MONTANA
CITY           SKY/WX    TMP DP  RH WIND       PRES   REMARKS
GLASGOW        CLOUDY    28  21  75 NE9       30.05R WCI  19
GLENDIVE       CLOUDY    28  19  69 E9        30.02R WCI  19
JORDAN         CLOUDY    28  21  75 NE7       30.02R WCI  21
SIDNEY         CLOUDY    28  19  69 NE9       30.07R WCI  19
WOLF POINT     CLOUDY    30  19  64 NE12      30.07R WCI  20
* BEAVER HILL  N/A       24  18  78 NE14       N/A   WCI  12
* CIRCLE       N/A       27  22  81 NE9G14     N/A   WCI  18
* LINDSAY DVD  N/A       25  20  81 NE9G14     N/A   WCI  16
* NAVAJO       N/A       23  18  81 E11        N/A   WCI  12
* SACO         N/A       28  21  75 E3         N/A
$$

MTZ028>042-056>058-161600-
SOUTHCENTRAL AND SOUTHEAST MONTANA
CITY           SKY/WX    TMP DP  RH WIND       PRES   REMARKS
BAKER          SUNNY     28  19  69 E9        29.96R WCI  19
BILLINGS       PTSUNNY   39  30  70 VRB3      29.97R
LIVINGSTON     PTSUNNY   41  25  53 SW18      29.96R
MILES CITY     PTCLDY    34  21  59 N7        29.99R WCI  28
* LAUREL APT   PTCLDY    41  25  53 N/A        N/A
* ROUNDUP APT  PTSUNNY   34  28  79 N7         N/A   WCI  28
* HYSHAM       N/A       34  21  59 N4G12      N/A
* LAME DEER    N/A       32  24  72 NW9G16     N/A   WCI  24
* REED POINT   N/A       42  28  58 W12G19     N/A
* ROSCOE HILL  N/A       38  10  31 NW10G18    N/A   WCI  31
$$

REGIONAL REPORTS...DAKOTAS
CITY           SKY/WX    TMP DP  RH WIND       PRES   REMARKS
WILLISTON      CLOUDY    27  21  78 E14       30.08R WCI  16
DICKINSON      CLOUDY    27  19  72 NE12      29.96R WCI  16
CROSBY         LGT SNOW  21  19  92 E17G22    30.13R WCI   7
TIOGA          CLOUDY    23  23 100 E17       30.10R WCI   9
WATFORD CITY   CLOUDY    25  19  78 E14       30.04R WCI  13
BISMARCK       CLOUDY    28  23  81 E17G22    30.01R WCI  16
GRAND FORKS    PTSUNNY   34  10  37 NE15      30.07R WCI  24
FARGO          CLOUDY    28  21  75 NE15      30.03R WCI  16
BUFFALO SD     PTSUNNY   30  18  61 NE15G22   29.86R WCI  19
RAPID CITY     LGT SNOW  34  30  85 N26       29.84R WCI  21
$$

REGIONAL REPORTS...WYOMING/IDAHO/WASHINGTON
CITY           SKY/WX    TMP DP  RH WIND       PRES   REMARKS
GILLETTE       PTCLDY    37  30  76 NW22      29.92R WCI  26
SHERIDAN       CLOUDY    39  34  82 NW18G28   29.95R WCI  30
CODY           SUNNY     37  25  62 SE3       29.95S
YELLOWSTONE LA PTCLDY    19  16  88 CALM      30.00R
SALMON         PTCLDY    36  21  54 N5        30.04S WCI  32
MULLAN PASS    CLOUDY    27  23  85 VRB3      29.95S
SAND POINT     CLOUDY    37  36  96 S5        30.00S WCI  33
SPOKANE        CLOUDY    41  28  60 S10       30.01R
$$

REGIONAL REPORTS...ALBERTA
CITY           SKY/WX    TMP DP  RH WIND       PRES   REMARKS
CALGARY        LGT SNOW  27  23  85 N7        30.01S VSB 3/4  WCI  19
LETHBRIDGE     LGT SNOW  27  27 100 N10       30.03R VSB 1    WCI  18
MEDICINE HAT   CLOUDY    32  27  82 NE6       30.06R WCI  26
EDMONTON       N/A       27  21  78 SE7       30.09S WCI  19
WATERTON GATE  N/A       28  27  96 NE7        N/A   WCI  21
CARDSTON       N/A       28  28 100 NE3        N/A
MILK RIVER     N/A       28  27  96 N7         N/A   WCI  21
$$

REGIONAL REPORTS...SASKATCHEWAN
CITY           SKY/WX    TMP DP  RH WIND       PRES   REMARKS
SWIFT CURRENT  LGT SNOW  25  23  92 E13       30.05R VSB 2    WCI  13
MOOSE JAW      LGT SNOW  25  16  69 E15       30.16R WCI  13
REGINA         LGT SNOW  23  18  81 E16       30.18R VSB 3    WCI  10
VAL MARIE      N/A       28  23  81 E7         N/A   WCI  21
ASSINIBOIA     N/A       25  21  85 E12        N/A   WCI  14

$$




USA.gov is the U.S. government's official web portal to all federal, state and local government web resources and services.